sat.trackr.live / text

‹ back to catalog

STARLINK-6084

NORAD 56111 · 2023-046U

PAYLOAD ACTIVE UNKNOWN

§ Identity

Operator
Country
US
Launch date
2023-03-29
Launch site
AFETR
Launch vehicle
Mass (kg)
RCS (m²)

Purposes: comms

External: N2YO · Heavens-Above · Gunter

§ Orbital elements

Epoch: 2026-05-25T02:39:40.183200Z

Period
94.27 min
Inclination
43.0056°
Eccentricity
0.0001664
Mean motion
15.27573539 rev/d
Perigee alt
481.9 km
Apogee alt
484.2 km
Semi-major
6,861.2 km
B*
1.4761e-6
RAAN
90.4239°
Arg perigee
270.5239°
Mean anomaly
89.5422°
Rev number
17,371

§ Raw data

STARLINK-60841 56111U 23046U   26145.11088175 -.00000222  00000+0  14761-5 0  99982 56111  43.0056  90.4239 0001664 270.5239  89.5422 15.27573539173712

JSON: /api/v1/satellites/56111 · /tle

For live sub-satellite position, see the globe view (requires WebGL).

§ Visibility from observer

Set your observer location to see the next 7 days of passes ≥ 10°. The values pass through the URL so the page stays shareable.

No JS? Fill the form by hand. The geolocation button needs JavaScript.